Theta_e
363 356 356 354 356 359 354 348 324 332 328 316 319 319 316 329 328 329 326 331 325 331 334 335 335 334 331 329 332 334 336 331 332 324 321 341 355 354 357 359 357 356 356 358 358 357 358 360 361 362 362 362 364 365 364 363 362 364 364 365 366 366 365 365 367 367 367 367 368 368 367 367 368 367 367 366 366 365 365 365 365 365 365 365 364 364 363 363 362 362 362 362 362 362 361 361 362
356 353 354 355 354 352 339 344 328 321 322 317 318 323 322 329 326 324 325 328 328 330 334 335 335 335 335 336 337 338 336 340 340 338 344 352 352 354 357 360 357 355 357 357 358 358 357 358 360 362 363 362 362 362 364 364 364 364 365 364 364 365 366 367 367 367 367 367 367 367 367 368 367 367 367 366 366 365 365 365 365 365 365 364 364 363 363 362 362 362 361 361 361 362 362 361 361
354 354 355 357 355 348 342 340 320 320 315 312 318 321 327 326 323 326 328 329 332 334 338 337 337 336 335 336 333 333 329 344 344 346 345 353 347 350 355 358 357 356 357 358 357 358 358 357 360 362 363 363 363 363 364 363 364 364 364 363 364 365 366 367 367 367 367 367 367 367 367 367 367 366 366 366 365 364 365 365 364 365 364 364 363 363 362 362 362 361 361 360 360 361 362 361 362
356 358 353 353 340 351 333 331 323 318 312 315 316 323 323 323 324 328 329 333 333 335 336 335 332 338 335 329 333 339 337 339 346 345 343 347 349 354 356 358 359 357 358 358 358 359 358 360 361 362 363 363 363 364 364 364 363 363 365 364 365 365 366 367 367 366 367 367 366 366 366 367 367 366 366 365 365 365 365 364 364 364 363 363 363 363 362 362 361 361 361 361 361 361 361 361 361
357 357 358 350 341 329 330 327 324 323 312 317 314 323 325 326 326 328 331 334 334 335 334 336 333 337 339 335 339 333 334 344 346 349 347 351 355 356 357 358 357 358 356 358 358 358 359 361 361 362 364 364 364 365 365 365 364 364 364 364 364 365 366 366 366 366 366 366 366 366 366 366 366 366 366 365 365 364 364 364 364 363 363 363 363 362 361 361 361 362 361 361 361 361 360 361 361
360 359 358 351 337 343 333 324 319 314 317 324 320 322 327 328 327 331 332 334 334 334 338 336 332 332 332 335 341 336 344 336 346 348 349 349 355 357 358 358 356 357 358 359 358 359 359 362 362 363 363 363 363 364 363 364 365 365 365 365 364 365 365 365 366 366 365 365 365 365 366 366 366 366 366 365 365 364 364 364 363 364 363 363 362 362 361 361 362 361 361 361 361 360 360 360 360
355 353 348 346 344 341 325 322 313 314 319 325 324 326 327 329 331 331 331 331 334 334 337 334 337 334 331 339 342 345 349 350 346 347 352 353 356 358 356 358 357 356 359 359 359 360 360 363 364 364 364 363 363 363 364 365 365 365 366 365 364 364 364 365 365 365 365 365 365 365 365 366 366 366 365 365 364 364 364 363 363 363 363 362 362 362 361 361 361 361 361 360 360 360 360 361 361
360 344 343 333 329 330 325 323 314 317 319 327 328 327 329 331 332 331 329 327 328 329 334 337 337 332 330 342 333 344 349 352 351 353 354 354 356 356 358 357 355 356 359 359 360 361 365 364 364 365 365 365 364 364 363 365 365 365 366 365 364 364 364 364 365 365 365 365 365 365 366 366 366 365 366 365 364 363 363 363 362 362 362 362 362 362 362 361 361 361 360 360 361 360 360 361 362
350 344 344 330 323 326 319 314 315 321 320 325 327 332 335 332 333 332 329 330 330 331 333 334 335 329 331 336 336 343 348 353 354 354 354 355 354 356 357 356 355 355 357 359 361 361 362 365 365 365 365 365 364 365 365 366 366 366 366 365 364 364 364 364 364 365 365 365 365 365 365 365 365 365 365 364 364 363 363 363 362 362 362 362 362 361 361 360 360 361 361 360 361 361 361 361 361
347 343 333 328 327 316 317 313 313 316 321 326 327 329 331 333 332 332 329 328 329 331 333 337 338 331 335 332 337 342 345 352 353 352 355 355 356 356 356 357 357 357 358 359 361 360 362 368 365 365 365 365 365 366 366 366 366 365 365 365 364 364 363 364 365 365 365 365 365 365 364 364 365 366 365 363 363 363 363 362 362 362 362 362 361 361 362 361 362 363 363 362 361 362 362 361 361
334 342 340 324 319 317 312 312 315 318 320 324 327 331 333 334 333 331 331 330 334 331 333 337 333 333 335 334 338 347 350 352 351 349 354 355 357 355 354 357 358 359 357 358 359 362 362 363 367 366 366 366 365 366 366 366 365 365 365 365 364 364 364 364 364 365 365 364 364 364 364 364 365 365 364 363 363 363 362 362 362 361 362 361 361 362 363 363 363 363 362 363 363 362 363 362 362
328 329 330 319 317 316 313 313 315 317 321 323 324 329 333 333 333 330 329 328 330 331 331 335 331 339 333 333 336 345 349 349 350 352 353 355 355 356 356 357 358 357 357 358 360 361 362 363 364 368 366 366 366 366 366 366 366 365 366 365 364 364 364 364 365 365 365 365 365 364 364 364 364 364 363 363 363 362 362 362 360 361 362 361 362 362 362 363 363 362 363 363 363 363 363 363 363
330 330 324 319 317 316 315 315 315 318 318 320 322 327 332 331 330 330 330 330 331 330 331 336 337 338 330 333 340 345 346 349 351 353 353 353 353 355 356 358 358 358 359 361 359 361 362 362 362 364 365 366 366 366 366 367 366 366 366 365 364 364 364 364 364 364 364 364 364 364 364 364 364 363 363 362 363 362 361 361 361 362 362 362 362 362 362 362 362 362 362 363 362 363 363 362 362
330 330 325 319 321 319 316 315 317 315 314 319 324 329 331 329 329 332 330 327 329 330 335 338 338 339 334 335 336 340 343 349 352 353 354 354 354 353 354 354 356 358 359 360 359 361 361 361 362 363 365 366 365 366 367 367 367 366 365 365 364 364 364 364 364 364 364 364 364 364 364 364 364 363 363 363 362 362 362 361 361 361 362 361 361 361 361 360 360 361 362 362 362 363 363 362 361
330 337 325 321 318 318 317 320 315 315 315 320 323 327 327 329 331 329 331 329 330 336 338 342 339 335 327 332 333 339 344 349 351 353 353 354 354 354 354 355 355 356 358 359 361 360 360 360 360 364 365 364 365 365 365 365 366 366 365 365 364 364 365 365 364 364 364 364 364 364 364 364 364 364 364 363 363 364 363 361 361 359 360 359 360 361 361 361 362 362 362 362 362 363 363 361 362
333 330 327 320 316 315 315 318 319 317 316 322 324 326 325 328 331 329 331 334 331 336 337 331 340 333 335 335 339 344 347 349 351 352 352 352 353 354 357 356 356 358 359 359 360 361 360 360 361 363 364 364 364 363 364 365 366 365 365 365 365 365 365 364 364 364 364 364 364 364 364 365 364 363 365 364 365 364 364 361 361 360 359 360 360 361 361 361 362 363 363 363 362 362 363 363 362
335 332 321 322 316 316 318 317 318 314 320 322 324 324 322 325 331 331 335 333 328 328 333 335 335 339 337 340 345 347 348 350 352 350 350 351 351 352 354 354 356 358 358 359 360 360 361 362 362 363 365 364 364 364 365 365 364 366 366 366 366 365 365 365 365 365 365 365 365 365 365 364 366 365 364 363 365 362 366 354 358 361 359 361 360 361 361 362 362 363 363 364 364 363 364 363 363
329 327 324 317 318 316 319 319 321 324 321 322 324 324 323 321 323 326 331 329 328 331 331 334 336 337 341 343 347 348 348 348 348 347 347 347 349 350 351 352 353 353 356 357 360 360 360 362 362 363 364 365 364 364 364 365 365 365 365 366 365 365 364 365 365 364 366 366 365 366 366 365 365 367 365 363 363 362 365 360 361 360 360 360 362 362 364 364 365 364 364 365 364 364 364 360 363
324 325 323 315 319 319 325 324 326 325 323 325 326 325 324 323 323 326 326 324 325 327 329 331 332 338 342 345 346 346 347 347 347 347 346 345 346 347 350 352 353 353 354 356 358 360 361 362 362 362 364 365 365 364 363 364 366 366 365 366 365 366 366 365 365 365 366 367 367 365 368 366 364 369 368 365 363 362 361 363 363 362 361 362 362 364 365 366 366 366 365 365 364 363 363 363 364
326 326 318 320 322 323 326 326 325 328 327 324 325 327 324 323 324 328 324 322 325 324 325 328 332 336 339 342 344 345 346 346 348 347 346 346 347 347 349 350 352 353 354 355 358 361 361 361 362 363 363 364 362 362 361 363 364 366 364 363 363 364 365 364 365 365 365 367 364 365 363 367 364 365 364 362 361 364 365 365 366 362 362 363 365 365 365 367 368 368 367 365 365 363 362 361 362
324 322 323 321 324 322 325 325 328 329 330 327 326 326 323 324 324 325 324 321 324 325 328 330 333 337 339 342 343 345 345 345 346 347 345 345 346 347 348 351 351 352 355 357 357 359 361 361 361 362 363 365 363 362 362 361 363 363 362 362 363 363 363 364 365 365 366 366 365 365 363 362 360 361 365 365 361 359 362 362 364 364 366 365 362 365 366 361 364 364 364 365 365 365 362 362 361
325 321 325 324 325 321 325 325 328 328 330 329 327 324 322 328 323 325 323 321 320 325 328 334 336 339 340 341 342 344 344 344 345 344 344 344 344 345 347 349 352 354 356 354 355 357 359 360 360 361 362 364 364 362 362 362 363 362 363 361 362 363 363 362 363 363 363 365 365 361 360 360 361 360 363 363 358 373 365 363 364 366 364 363 365 363 365 365 364 360 359 361 363 361 358 365 364
317 322 323 324 325 322 327 326 326 323 326 327 326 329 326 326 322 327 325 325 325 331 332 336 338 342 342 343 343 343 343 343 344 342 343 344 343 345 346 348 349 350 353 354 358 359 360 360 361 363 362 365 366 364 365 364 361 363 364 363 361 360 362 361 362 363 362 365 363 361 355 357 355 355 357 362 364 361 360 365 365 365 364 360 362 361 361 367 366 364 364 361 360 358 361 366 362
319 316 323 324 326 323 328 326 326 325 324 326 330 331 326 326 319 326 322 327 329 330 334 336 339 342 342 341 341 342 343 343 343 343 343 345 344 345 346 347 348 351 352 355 356 359 360 359 362 363 363 364 365 364 363 361 362 362 363 364 362 361 362 361 361 361 364 364 365 362 364 357 355 361 364 363 366 367 358 361 362 363 361 363 365 362 361 361 363 369 364 364 361 362 355 359 359
317 317 321 322 325 325 327 327 326 326 326 330 330 325 326 325 325 325 323 327 329 330 334 335 339 339 340 341 341 342 343 342 341 343 344 346 345 348 347 349 349 350 349 353 355 356 358 360 361 360 361 363 362 361 359 360 360 361 362 360 360 363 361 361 360 362 361 362 363 369 368 359 359 359 361 364 366 365 365 363 361 362 362 363 363 361 365 364 364 362 364 360 361 360 357 355 361
318 317 321 322 322 325 326 326 325 325 325 328 327 325 327 326 329 322 326 326 329 331 333 335 337 337 337 338 339 341 342 340 342 343 343 345 346 346 346 348 349 348 349 352 354 354 356 358 358 358 360 362 362 359 360 359 360 360 361 362 361 363 360 360 363 359 359 361 362 364 363 366 363 360 361 366 363 364 366 365 364 363 365 366 364 362 368 368 366 363 363 363 360 358 358 357 362
321 320 320 320 321 323 325 324 324 324 323 326 324 324 326 329 323 319 328 326 328 330 331 334 335 336 337 337 338 340 340 339 340 343 342 344 344 345 345 348 348 350 352 351 353 354 357 356 357 360 362 365 363 359 361 360 362 361 362 362 361 361 360 365 362 360 360 361 365 367 369 372 368 360 363 367 367 367 366 364 365 366 364 363 365 363 365 364 364 363 362 360 360 359 357 360 360
321 321 320 320 322 323 324 324 324 323 321 326 325 325 328 328 322 323 326 326 329 329 330 331 333 335 336 336 337 342 340 340 341 341 339 340 340 343 343 346 348 350 351 352 354 356 354 356 357 359 360 364 364 359 362 361 363 362 365 363 362 363 366 362 361 363 364 364 369 367 371 370 369 367 367 366 365 365 366 365 366 366 361 363 363 361 365 364 363 363 362 361 361 359 357 358 359
319 319 314 317 319 318 322 320 322 323 320 324 326 324 323 324 319 327 328 328 328 329 328 329 330 332 335 335 336 340 339 340 340 339 340 341 343 344 343 348 347 350 352 354 356 356 353 355 357 358 360 364 364 359 359 361 363 361 362 363 364 366 364 364 360 361 366 365 371 372 374 372 371 370 369 366 365 364 364 365 364 363 363 363 362 363 363 365 364 362 363 362 360 358 357 353 359
320 318 316 315 315 315 321 323 323 321 321 324 325 312 317 323 325 329 329 327 327 327 326 327 328 331 332 333 334 337 339 339 339 340 341 342 343 344 344 347 348 350 351 352 354 354 355 356 355 357 359 360 364 360 363 360 363 362 363 362 365 367 365 363 362 367 369 366 370 368 369 372 374 372 369 369 369 366 365 365 363 362 365 365 365 367 364 364 360 360 357 357 359 357 353 354 350
313 316 317 311 311 311 320 322 322 319 323 324 324 312 317 323 324 329 330 329 326 325 326 326 327 329 330 331 334 335 338 341 338 341 340 342 344 344 345 347 348 349 350 350 352 355 358 356 357 356 361 361 362 363 363 363 365 362 362 362 362 366 365 365 359 363 365 366 366 368 369 369 369 373 371 370 367 366 363 362 363 365 366 365 363 365 364 360 358 358 358 354 353 359 347 346 348
315 311 308 312 310 313 318 322 322 316 322 325 322 316 317 322 324 329 330 329 328 325 326 327 328 328 330 330 334 335 338 340 341 341 341 343 345 344 346 347 349 349 351 353 353 354 356 357 360 356 358 362 362 364 365 365 364 367 364 363 364 367 364 362 361 359 360 365 367 369 371 370 370 368 367 370 367 365 363 363 365 364 365 367 366 362 361 360 356 358 358 353 356 346 352 347 360
313 310 309 309 311 312 316 320 323 321 322 324 320 314 319 320 326 329 330 329 328 327 326 326 328 328 329 330 333 336 337 339 341 341 343 345 346 346 348 348 349 350 352 356 355 357 359 357 360 355 355 360 363 362 366 367 369 367 366 364 361 366 361 362 363 362 362 363 365 364 369 372 370 368 364 368 369 367 368 365 362 362 362 362 364 357 357 359 359 354 357 358 356 355 349 344 348
309 312 309 312 311 312 311 319 322 321 322 319 322 318 319 323 325 328 330 330 329 328 327 327 327 328 330 330 331 334 337 338 339 342 342 344 346 347 347 352 350 351 353 353 356 358 356 358 357 357 358 358 364 364 365 365 366 368 366 366 368 363 360 359 359 362 364 361 367 369 370 369 370 369 366 367 371 368 368 366 363 364 360 361 360 356 356 359 357 359 354 364 354 356 354 348 347
306 309 309 309 312 314 313 313 319 320 322 319 319 318 320 321 324 327 328 330 329 329 328 328 327 328 330 330 331 333 336 337 339 343 342 346 345 347 348 350 350 351 351 354 356 360 359 360 359 362 362 359 362 365 366 367 367 368 365 367 365 366 367 363 360 360 360 363 361 370 372 369 369 370 369 372 370 368 367 365 364 362 361 359 354 351 358 357 358 354 355 355 360 355 354 354 354
310 311 311 311 310 312 312 317 321 321 318 317 319 315 318 321 323 326 329 330 329 329 331 330 329 328 330 331 330 331 335 337 341 343 344 344 346 346 347 349 350 351 353 356 359 361 361 362 362 361 365 361 364 366 364 362 361 361 359 362 361 363 364 363 363 360 360 363 363 370 371 368 370 367 369 369 369 369 368 363 361 360 359 356 358 354 359 355 356 355 357 352 352 355 352 357 349
313 314 313 312 312 314 317 317 320 322 318 318 319 320 319 320 323 326 328 330 330 329 330 330 331 329 329 330 330 331 335 336 341 343 344 344 346 348 348 349 349 351 354 357 359 360 361 359 361 360 363 364 363 361 361 359 358 358 360 357 357 358 362 363 361 362 360 362 371 370 370 370 369 370 370 368 368 368 366 362 360 359 360 358 361 361 357 356 357 362 363 357 354 350 348 350 353
312 312 312 311 313 312 316 316 320 322 317 316 320 320 320 320 324 325 327 328 328 328 329 331 331 331 331 332 332 332 334 337 341 342 343 344 344 346 346 348 349 348 352 355 356 358 360 360 360 361 362 364 363 362 363 363 362 358 358 357 355 356 360 360 360 362 358 361 370 371 373 371 371 369 370 369 367 369 363 363 363 361 361 360 361 361 357 353 355 351 361 356 353 350 350 344 344
312 311 311 311 312 315 317 317 319 321 318 315 319 317 318 321 323 325 325 326 330 330 331 331 334 333 333 332 333 334 334 336 338 341 342 342 344 345 346 348 347 348 350 352 356 359 361 360 361 363 361 362 363 363 364 363 363 363 360 360 358 356 361 362 360 361 363 361 367 370 371 373 370 371 368 370 366 360 365 362 360 361 357 364 355 355 360 353 361 352 354 352 349 354 353 351 349
311 311 309 308 313 312 309 315 318 319 318 316 318 316 318 322 324 326 327 328 329 332 332 332 333 334 333 332 334 335 334 337 335 339 341 341 343 345 347 347 348 349 351 351 355 358 360 361 362 363 363 362 363 364 365 365 365 366 367 366 363 361 359 361 365 364 363 361 361 369 373 372 370 368 368 367 366 365 363 361 360 360 360 360 361 360 358 354 361 357 355 355 353 340 341 344 351
311 311 311 310 311 313 313 314 316 319 320 320 318 316 316 318 319 321 326 327 329 330 331 332 334 335 335 335 335 337 336 338 338 338 341 341 342 343 347 349 349 349 351 351 353 356 358 361 362 363 365 363 363 364 365 366 365 365 366 367 368 365 365 363 359 358 359 361 358 366 370 370 366 367 366 365 364 364 362 361 363 359 362 358 357 356 354 351 355 349 354 353 352 344 338 343 349
309 312 312 312 314 313 315 315 314 313 313 317 316 308 310 317 319 320 323 325 326 330 331 331 334 334 335 335 336 337 338 340 341 341 342 342 342 345 349 350 349 349 351 353 354 356 361 362 363 364 365 365 363 364 365 366 364 363 363 360 358 359 357 356 356 355 355 356 353 357 370 367 363 365 364 366 363 362 361 361 363 358 359 361 357 356 354 358 352 355 348 350 348 349 343 341 344
307 309 315 314 314 314 314 313 313 308 307 315 319 308 305 315 316 319 322 323 323 329 330 330 333 335 333 333 335 335 336 336 339 341 341 341 344 344 347 350 349 349 351 355 356 358 363 365 365 364 365 365 365 365 365 365 365 364 363 361 360 359 357 357 363 361 363 364 363 363 367 364 364 364 361 363 362 362 361 362 363 360 358 357 357 355 353 349 345 349 346 347 349 347 351 344 341
306 314 315 314 313 312 313 313 312 311 316 316 317 315 308 309 315 321 323 322 322 325 326 330 330 333 332 333 332 337 336 337 339 341 343 344 346 344 345 349 350 349 352 355 357 360 363 366 366 364 365 365 366 366 365 366 364 364 363 363 362 362 358 359 361 364 368 367 366 361 361 364 365 364 362 363 363 362 362 361 362 361 359 356 356 351 351 348 356 350 350 350 351 352 351 348 343
309 314 315 313 313 313 313 313 311 312 311 308 312 316 310 308 316 322 322 319 320 323 325 327 332 333 333 334 334 336 336 339 339 341 342 344 346 346 347 349 350 351 352 354 357 360 364 366 366 366 365 366 366 368 366 366 366 365 364 364 363 363 362 363 363 364 365 365 363 362 365 362 365 365 364 361 362 361 361 361 360 360 357 356 353 352 349 350 348 350 351 348 352 350 351 349 347
312 314 315 315 315 314 314 311 311 311 309 304 310 313 307 307 315 316 320 318 318 321 324 326 329 332 333 332 335 335 336 341 340 341 344 345 348 348 347 349 351 351 353 357 357 360 363 365 366 366 366 366 367 367 367 367 367 366 365 365 363 362 363 363 362 363 365 365 363 364 364 363 362 363 364 363 362 361 360 360 358 356 356 349 348 348 349 349 350 349 349 349 349 349 349 350 351
315 314 312 312 312 312 313 312 311 309 303 306 311 313 310 304 311 314 315 316 319 321 324 326 330 331 333 333 332 332 337 340 341 342 345 347 348 349 349 348 351 353 354 356 356 359 361 363 366 365 366 367 368 367 367 367 367 367 365 365 364 362 363 363 362 362 362 363 361 361 363 363 363 361 359 363 361 360 360 359 355 355 352 354 351 356 350 346 346 348 348 350 350 349 346 349 346
312 310 308 308 308 311 310 309 311 303 301 308 311 311 312 302 308 315 319 322 322 322 321 324 325 330 332 333 332 333 337 341 341 341 342 346 347 348 348 348 351 353 354 355 354 358 360 362 364 365 367 367 367 367 367 367 366 366 366 366 365 364 363 361 361 359 360 360 359 360 363 363 362 363 362 359 358 354 360 358 357 356 354 351 348 354 351 349 343 347 349 350 349 348 351 354 349
309 308 308 303 301 303 300 304 300 300 300 308 312 312 307 308 312 317 319 321 322 324 323 324 325 327 331 332 335 338 338 337 340 345 345 345 345 346 349 351 352 353 353 355 353 354 359 362 364 365 366 368 366 367 366 367 367 366 366 365 365 365 365 364 363 361 361 361 360 360 362 360 361 360 360 358 357 357 358 359 358 358 352 351 350 351 357 349 354 348 349 349 347 347 348 347 347
307 305 305 302 298 298 295 299 303 303 307 311 310 313 306 311 315 319 319 322 324 325 327 326 327 328 331 334 338 337 337 337 339 342 342 345 344 344 346 350 351 352 354 354 354 355 358 361 364 365 366 368 367 366 366 366 367 368 367 366 366 365 365 365 365 362 362 363 364 361 359 358 360 358 357 359 356 356 357 357 359 355 354 355 353 352 354 352 354 349 349 348 347 349 348 347 347
307 309 307 304 302 299 296 299 297 299 303 308 312 307 305 305 309 320 321 324 326 326 326 330 331 329 334 335 337 336 336 338 340 341 341 344 347 349 349 352 352 353 353 352 354 356 358 360 363 364 366 367 367 366 366 366 367 368 368 367 366 366 365 365 365 364 364 363 364 362 361 360 360 359 359 359 362 359 358 358 355 355 352 352 354 352 351 354 352 354 351 350 348 349 348 350 346
309 309 309 304 303 308 300 304 303 303 303 303 307 306 311 309 321 322 324 323 324 325 326 328 329 330 330 332 335 334 335 335 336 340 343 346 349 348 349 352 353 353 354 352 354 356 357 359 363 365 366 367 367 366 366 366 367 368 368 367 366 366 365 365 365 366 367 365 364 362 362 363 361 362 362 359 360 358 357 354 353 353 352 350 351 353 352 350 352 351 354 350 351 349 348 347 348
306 307 302 304 311 309 305 307 308 308 304 302 310 309 312 316 316 318 321 322 323 324 324 324 326 326 329 330 333 334 335 335 336 339 343 347 347 349 352 352 351 352 353 352 354 356 358 359 361 365 366 367 367 366 365 367 368 367 368 367 367 366 365 364 363 365 362 365 365 363 362 362 363 363 360 359 356 357 356 353 350 350 350 350 349 352 351 352 352 350 349 351 348 347 349 347 348
308 302 305 311 313 311 306 299 303 302 299 302 307 305 307 308 305 317 317 318 319 322 322 323 325 328 327 331 333 334 335 338 340 343 346 347 348 351 352 351 351 351 352 354 356 357 358 360 361 363 365 366 367 367 365 366 367 367 367 367 368 367 364 363 363 364 364 364 365 363 362 361 360 360 358 356 356 355 356 355 351 350 350 349 349 348 350 351 351 349 349 348 348 350 349 349 347
307 306 313 304 300 299 306 303 297 297 297 300 305 306 307 309 309 314 314 316 318 321 324 323 323 324 325 333 332 337 339 338 339 340 346 347 347 349 353 352 351 352 354 356 357 357 357 359 361 362 364 366 368 366 366 366 367 367 367 367 368 367 366 363 363 365 365 364 360 362 359 360 361 360 359 358 356 353 354 352 353 350 350 349 350 349 350 350 350 348 347 347 348 348 350 347 348
312 311 308 312 307 304 301 303 305 305 299 299 300 304 303 312 312 315 315 318 320 320 322 321 323 323 325 327 335 338 336 337 337 337 341 344 346 346 349 352 351 352 355 355 355 354 353 356 360 361 364 368 369 368 367 366 367 367 367 368 368 369 368 366 365 365 364 363 362 361 360 360 360 359 359 359 356 353 352 350 351 348 347 348 348 348 349 349 350 349 346 345 345 346 345 345 345
305 305 303 306 307 310 308 307 305 302 300 300 300 299 305 312 317 316 318 323 322 321 323 324 324 325 325 327 329 335 336 338 338 340 341 343 344 346 349 352 353 353 356 355 354 353 351 353 357 360 363 365 366 367 368 367 366 366 368 368 368 368 367 367 366 365 364 364 364 362 361 360 361 359 358 357 356 354 352 351 349 349 347 346 347 347 348 348 348 348 348 347 346 345 344 343 345
307 304 302 304 303 303 299 298 307 306 302 298 299 299 308 314 318 321 321 327 321 323 325 325 324 324 328 328 332 331 336 341 340 339 340 342 349 351 352 353 355 354 353 354 354 352 351 351 355 359 361 363 364 367 368 367 367 368 367 368 368 368 368 366 365 365 363 363 364 363 363 363 360 360 359 356 356 355 353 352 349 349 348 347 348 348 348 347 347 347 346 346 346 345 344 343 343
Wind_Speed
12 10 9 10 9 3 2 1 3 3 1 3 5 3 8 14 5 3 12 6 6 8 7 9 8 9 10 12 16 14 8 3 1 2 6 7 9 14 14 15 15 14 14 13 12 12 13 12 15 16 16 17 17 16 16 16 17 17 16 16 14 14 14 14 14 14 14 14 14 14 14 14 14 14 14 13 13 13 13 12 12 12 12 12 12 13 13 13 13 12 11 11 11 11 10 10 10
10 9 10 9 6 2 1 0 4 3 2 3 2 1 5 3 4 10 13 10 6 10 11 12 13 14 18 16 15 18 17 13 13 12 12 11 16 13 15 14 16 16 14 14 12 11 12 12 14 16 16 18 18 17 16 15 15 15 15 15 14 14 14 14 14 14 13 13 14 13 13 14 14 13 13 13 13 12 12 12 11 11 11 11 12 12 12 12 12 11 11 10 10 10 10 9 9
10 9 8 6 1 3 2 1 2 3 2 4 1 2 3 2 10 10 12 14 14 13 15 14 15 13 14 12 14 15 10 14 16 14 11 15 14 11 16 14 15 16 15 12 13 13 11 11 14 15 17 17 16 17 16 15 15 15 15 15 15 14 13 14 13 13 13 13 13 13 13 13 13 13 12 12 12 12 12 11 11 10 10 11 11 12 11 11 11 10 10 9 9 9 9 9 8
12 8 3 2 1 1 4 3 5 3 3 5 5 3 4 6 10 12 13 16 15 12 9 11 11 10 15 17 16 16 13 11 12 14 11 9 11 14 14 14 17 14 13 12 13 12 12 15 16 16 17 18 17 16 15 16 16 16 15 15 14 14 13 13 13 13 13 13 13 13 13 13 13 12 12 12 12 11 11 11 10 10 10 10 11 11 10 10 9 9 9 9 9 9 8 8 8
10 6 4 5 2 2 3 6 6 9 4 6 4 5 2 5 12 11 10 13 14 12 11 11 12 12 13 13 8 7 11 15 12 11 10 11 14 17 16 14 14 14 15 14 14 14 14 19 17 18 17 17 16 15 14 15 15 15 13 14 14 13 13 13 12 12 12 12 12 12 12 12 12 12 12 12 11 10 10 10 10 9 10 10 10 9 9 9 9 9 9 9 9 9 8 8 7
9 6 3 8 6 4 6 8 10 1 9 10 5 2 12 6 11 11 11 11 12 11 15 13 12 12 12 13 7 10 10 8 11 11 14 13 17 18 18 14 15 14 15 14 14 12 14 18 19 18 18 18 18 17 17 15 14 14 14 12 13 13 13 13 12 12 12 12 12 12 12 11 11 11 11 11 10 10 10 9 9 9 9 9 9 9 9 9 8 8 8 8 8 8 8 8 8
6 3 2 4 7 6 9 9 5 7 8 10 11 11 8 9 10 10 11 11 11 14 13 16 17 16 12 9 14 11 13 14 11 13 13 17 18 16 18 15 14 15 16 14 13 13 16 18 19 18 18 18 17 17 16 14 14 14 13 13 14 13 12 12 12 12 12 11 11 11 11 11 11 11 10 10 10 9 9 9 9 9 9 8 8 8 8 8 7 8 8 8 8 8 7 7 7
6 4 2 5 6 4 11 13 5 4 8 9 9 9 9 9 10 9 10 10 10 11 12 12 11 15 17 12 11 10 12 11 17 18 20 17 18 16 15 15 15 15 15 15 14 13 18 19 19 18 17 17 16 15 16 14 14 13 12 13 14 13 13 12 12 12 12 11 11 11 10 10 10 10 10 9 9 9 9 8 8 9 8 8 8 8 8 7 7 7 7 8 8 7 7 7 6
3 6 5 8 10 8 13 3 8 8 10 8 9 10 8 6 10 7 7 11 12 15 16 14 13 14 12 16 12 14 13 16 20 21 19 18 18 17 12 15 15 14 16 15 14 14 14 18 17 17 17 16 15 15 15 13 13 12 12 13 14 13 13 12 12 11 11 11 11 10 10 10 10 9 9 9 9 8 8 8 8 8 8 8 7 7 7 6 7 7 7 7 7 7 7 6 5
1 2 4 6 7 11 12 6 7 7 9 8 10 10 9 6 7 9 8 12 14 11 15 15 15 17 16 16 13 11 13 18 20 21 19 18 17 17 17 17 17 18 16 15 14 14 13 17 17 16 16 16 15 14 14 14 13 14 14 13 13 13 12 12 11 11 11 10 10 10 9 9 9 8 8 8 8 8 7 7 7 7 7 7 7 6 6 6 7 6 6 6 6 6 6 5 4
3 3 6 7 9 11 4 6 6 9 9 8 9 9 8 7 7 9 8 12 12 12 15 19 16 16 14 14 10 12 17 18 18 20 18 17 16 18 16 17 17 18 17 17 15 13 13 13 17 16 16 16 15 15 15 14 14 13 13 13 13 12 12 11 11 10 10 10 9 9 9 9 8 8 8 8 7 7 7 6 7 7 6 6 6 6 6 5 5 5 5 4 5 5 4 4 4
5 5 5 7 8 11 2 7 6 8 10 8 8 9 6 8 7 10 10 10 11 12 14 13 12 15 15 13 11 14 17 17 17 18 19 17 15 16 17 14 16 17 18 17 16 14 13 12 12 16 16 16 16 15 15 14 14 14 13 13 13 12 12 11 10 10 10 9 9 9 8 8 8 8 7 7 7 6 6 6 6 5 5 5 5 5 4 4 3 4 3 4 4 3 3 2 2
4 7 7 8 11 5 2 7 4 6 8 9 9 7 7 10 7 8 8 10 12 13 12 16 17 13 13 12 11 14 15 15 16 17 19 17 16 15 16 16 16 17 18 17 17 16 15 13 12 12 13 16 15 14 14 15 14 13 13 13 12 12 12 11 10 10 9 9 9 8 8 8 8 8 8 7 6 6 6 5 5 5 4 4 4 3 3 2 2 2 2 3 3 2 1 1 1
6 2 7 10 8 10 2 6 4 2 7 8 6 7 6 7 8 9 8 9 10 9 16 16 14 16 15 13 13 12 16 16 17 17 14 17 16 16 18 17 18 17 17 17 16 15 14 13 12 12 12 11 10 11 12 13 12 12 13 12 12 12 11 10 10 9 9 9 9 9 9 9 8 9 8 7 6 5 4 4 4 4 4 3 3 2 1 1 1 2 3 2 3 2 2 2 1
9 2 5 7 9 11 8 8 4 4 7 8 5 6 7 7 10 8 7 11 13 11 13 13 16 13 10 14 12 13 15 19 18 17 16 16 16 17 16 15 16 16 16 16 16 15 14 13 13 11 11 10 10 8 7 9 12 12 13 12 12 11 11 10 10 9 9 9 9 9 8 9 9 9 8 7 6 6 5 5 4 3 2 2 1 2 1 1 2 3 4 4 4 4 4 4 4
6 1 3 6 9 10 4 1 4 4 6 8 7 7 8 5 6 6 7 9 10 11 12 11 10 7 16 14 16 17 19 19 17 17 16 17 16 17 15 15 14 14 13 15 14 13 13 13 11 11 10 11 10 9 9 9 11 13 12 12 12 12 11 10 11 10 9 9 9 9 9 7 7 7 8 7 7 6 6 4 6 3 3 2 2 2 3 3 3 3 4 5 6 5 6 5 6
4 11 8 3 8 8 9 3 6 2 8 9 7 9 9 8 6 10 8 10 12 11 10 10 9 14 15 16 17 20 20 18 17 19 17 13 13 11 11 10 10 11 10 12 11 11 13 13 13 10 10 11 10 9 8 9 10 13 11 12 12 12 11 11 11 10 10 9 8 8 8 5 4 4 5 6 8 5 7 4 5 4 4 4 4 4 4 5 5 5 5 6 7 8 7 8 8
6 6 3 9 5 11 7 3 4 7 5 7 8 9 9 8 6 8 9 11 10 10 11 8 9 10 17 20 20 20 20 19 19 19 16 14 12 11 11 10 10 11 10 9 11 11 11 10 11 11 9 10 9 7 7 7 8 10 9 9 8 9 10 10 8 7 8 5 9 6 4 4 4 4 5 5 5 6 7 9 7 6 6 6 6 6 6 6 6 6 7 8 9 8 9 4 5
8 6 6 7 8 4 14 5 8 5 7 7 5 7 8 9 7 7 9 11 9 12 11 9 13 17 22 20 21 21 20 19 19 18 18 17 14 15 11 10 10 11 10 10 10 11 10 9 10 10 10 9 9 8 7 7 9 7 9 8 7 9 9 8 6 7 5 5 5 5 5 4 3 2 4 5 5 8 7 10 9 8 7 7 6 6 7 8 7 8 8 8 8 9 6 4 4
8 9 1 9 13 12 11 2 3 3 7 8 7 5 10 7 8 7 8 9 10 12 10 12 14 19 21 21 21 20 19 20 18 18 18 16 15 16 15 13 12 12 11 10 10 9 10 9 10 10 11 10 9 7 8 8 8 7 7 7 6 6 7 6 6 6 6 5 6 5 5 4 5 4 7 8 4 3 4 10 8 6 6 5 6 5 6 8 8 9 9 10 7 4 3 4 2
9 8 10 3 5 5 9 1 3 5 5 7 7 4 10 8 9 9 12 10 10 11 10 12 17 18 20 21 21 20 20 19 18 18 17 16 16 14 14 12 12 12 11 10 10 10 11 11 11 10 11 10 10 7 7 8 8 6 7 7 6 6 6 6 6 6 5 7 6 5 5 5 6 5 4 3 4 4 3 4 4 3 2 2 2 3 2 3 1 3 4 4 3 4 1 2 3
5 7 2 4 7 7 5 4 5 4 2 8 8 8 8 8 5 7 11 8 9 10 12 15 17 19 19 20 21 19 20 19 19 18 17 17 17 14 14 13 13 11 11 11 12 12 13 12 12 11 11 10 9 9 8 7 8 6 6 7 6 6 6 7 6 6 5 6 5 6 6 5 4 5 5 5 5 3 2 2 3 3 2 1 0 2 2 1 0 2 3 4 2 3 4 2 1
10 6 10 9 5 2 11 2 5 3 8 6 5 6 9 8 7 4 9 5 7 15 14 17 17 20 19 18 19 19 20 19 19 18 18 17 16 15 15 14 13 12 10 11 11 11 11 12 12 12 11 10 10 7 6 6 7 6 5 5 7 6 6 6 6 5 6 6 6 6 7 5 5 4 6 4 3 4 3 0 2 1 2 1 2 2 3 2 1 1 2 2 3 3 3 1 1
10 7 9 12 11 14 12 4 2 3 3 8 6 8 7 7 10 4 8 5 14 15 17 18 17 19 19 20 18 18 19 19 19 17 18 16 17 16 15 15 14 12 11 12 12 11 11 14 12 12 10 10 9 8 7 7 6 7 5 6 6 5 7 5 3 5 5 7 6 5 4 5 4 3 3 3 3 1 6 4 2 1 2 1 1 3 2 1 1 2 2 2 3 3 4 3 2
10 12 10 7 6 8 6 7 6 3 4 7 8 7 7 5 6 8 10 7 13 15 18 18 19 19 19 19 19 18 18 18 18 17 15 13 15 15 15 12 13 13 13 14 12 12 14 12 13 14 12 11 9 9 8 6 7 7 7 7 7 7 5 6 8 6 6 6 6 4 3 3 3 4 3 2 2 2 3 4 3 2 2 2 2 3 2 2 1 1 2 3 3 4 5 4 2
12 14 8 11 10 7 8 6 7 12 6 7 9 7 9 7 12 9 12 9 7 16 17 17 18 19 18 19 19 18 17 17 17 17 16 14 14 16 15 13 13 14 13 14 14 12 13 14 14 14 13 11 9 10 7 7 7 7 7 7 6 6 6 6 6 5 6 6 5 4 3 2 1 5 4 2 2 3 2 2 1 1 1 1 3 2 2 1 1 1 1 2 3 4 4 4 2
10 13 15 9 9 9 8 8 10 14 11 12 10 9 10 9 7 8 11 13 8 16 16 17 18 18 18 16 16 17 17 18 18 16 16 15 15 14 14 15 14 13 12 13 13 12 12 14 14 13 12 10 9 9 7 7 7 7 7 5 5 6 5 5 6 6 4 5 5 6 4 2 1 6 4 3 2 3 2 2 2 0 2 1 2 2 2 2 2 2 2 2 3 3 4 4 3
17 16 10 11 10 6 6 13 12 5 8 14 9 8 9 12 6 8 11 14 11 16 16 17 17 16 16 17 17 14 13 14 14 16 17 17 13 13 15 13 14 14 13 13 11 10 14 14 14 13 13 10 8 10 7 6 6 6 6 5 5 5 5 4 4 3 5 3 3 5 4 3 2 5 3 2 2 2 2 2 2 1 1 2 1 2 1 2 2 2 1 0 1 2 3 5 3
17 15 12 10 6 8 13 11 8 13 11 10 10 10 9 11 7 10 14 14 13 15 15 16 16 15 16 16 16 14 14 14 14 14 16 13 14 12 15 15 14 14 11 13 11 13 15 15 13 13 12 11 9 10 8 7 6 6 5 5 5 5 4 4 4 4 3 7 5 4 3 2 3 4 4 4 4 4 3 3 2 2 2 2 3 3 3 2 1 2 1 2 3 4 6 6 2
13 13 11 12 12 13 13 10 12 11 8 9 11 9 8 11 6 9 17 14 14 15 15 15 14 15 14 14 14 14 14 14 15 13 13 13 14 14 15 15 15 13 11 11 13 14 12 11 11 11 12 13 10 9 7 6 6 6 5 5 4 4 4 4 3 3 3 5 6 6 5 4 3 4 3 3 2 3 3 4 3 2 2 3 3 2 2 1 3 2 2 3 5 6 5 1 2
10 12 10 10 9 9 8 8 11 9 6 11 12 6 7 10 10 9 16 14 14 14 15 15 15 15 14 14 14 14 15 13 15 15 16 16 15 14 15 15 15 15 11 13 14 12 12 11 10 11 12 12 12 9 8 7 6 5 5 5 4 4 4 4 4 3 3 3 6 7 6 5 3 2 4 3 3 3 2 3 3 3 2 2 1 2 1 3 0 2 3 4 5 2 4 3 3
11 10 12 11 11 7 6 9 9 10 12 12 12 6 6 9 12 12 14 14 14 15 16 15 15 14 15 14 15 15 15 15 16 17 17 17 16 14 15 15 16 15 14 12 13 13 11 12 10 12 13 12 12 9 7 6 7 5 4 5 4 5 4 4 4 5 5 4 4 6 6 6 6 4 2 4 4 3 3 3 3 2 2 1 2 4 2 1 3 3 4 4 2 3 3 4 0
12 11 9 12 11 9 8 12 11 10 10 10 13 7 11 9 11 14 15 14 15 14 16 15 16 17 16 14 14 14 14 15 15 16 17 16 16 14 14 15 14 14 13 12 11 11 10 12 11 13 16 13 12 11 8 6 5 6 5 4 5 4 5 4 4 4 3 3 4 5 7 6 5 5 4 5 4 3 2 2 3 3 3 2 1 1 2 3 4 5 5 1 2 3 3 4 5
10 10 11 12 13 11 7 9 11 13 10 10 13 9 7 12 15 15 16 15 15 15 15 16 15 14 15 14 14 15 14 15 15 15 18 17 14 16 16 14 15 15 13 15 13 11 10 10 11 9 12 14 10 10 8 7 6 5 4 3 4 5 6 5 4 3 3 4 4 5 8 7 6 5 6 6 4 3 3 2 2 5 4 3 1 0 5 4 5 2 3 3 4 1 2 3 3
10 11 12 12 16 11 10 7 10 12 14 12 13 12 7 8 15 15 16 15 15 14 14 16 15 16 15 15 14 16 15 16 16 14 17 15 17 16 14 15 15 15 13 15 13 11 10 8 9 8 10 12 11 9 8 7 7 6 5 5 5 5 4 4 4 4 5 4 4 7 7 7 6 6 5 5 4 4 3 4 3 3 4 2 3 5 5 5 1 3 1 1 2 2 2 1 1
16 14 13 13 11 8 8 12 12 13 13 12 11 12 10 7 14 15 14 14 14 13 14 14 15 15 15 14 14 14 15 17 15 16 17 16 14 15 13 14 13 13 12 12 13 12 11 9 9 8 7 10 10 8 8 7 7 7 7 6 6 5 5 5 5 5 4 4 4 7 6 5 6 6 5 5 5 4 3 5 4 3 3 3 5 5 2 3 3 3 2 3 2 2 3 1 2
18 17 16 14 12 9 9 13 14 16 12 13 12 13 12 10 9 11 12 14 13 14 14 14 14 14 15 15 15 15 15 16 16 17 16 17 17 15 12 12 12 13 11 12 13 13 12 11 10 11 7 9 9 9 8 8 8 7 6 8 7 7 5 5 5 5 5 2 2 6 7 6 7 6 6 7 5 5 4 4 5 4 4 6 4 2 3 3 2 1 2 2 0 2 2 3 2
21 17 15 12 11 10 10 15 14 16 13 11 13 13 13 13 11 10 5 10 15 15 14 14 15 15 14 15 16 15 14 13 17 16 17 17 16 17 15 11 13 14 12 14 14 14 12 13 11 11 9 8 10 9 9 8 7 7 7 6 7 7 6 5 4 4 4 4 5 5 6 6 6 7 7 6 5 3 4 5 5 5 5 4 3 2 2 3 0 1 1 2 2 1 1 1 5
20 17 15 13 10 11 13 18 13 15 14 10 15 15 12 13 12 12 15 18 13 14 14 14 12 13 12 14 15 14 14 13 16 18 19 17 20 19 15 13 14 15 15 15 14 14 14 13 11 11 10 9 9 10 9 8 7 7 7 6 6 5 5 5 5 4 4 4 6 7 6 6 5 5 6 6 4 4 4 5 4 4 2 3 4 3 2 3 2 1 2 2 2 1 1 0 3
16 15 15 14 12 11 10 13 13 17 12 9 13 13 10 14 13 18 18 16 14 14 16 15 15 14 12 15 15 14 15 13 15 17 20 19 19 17 15 14 14 14 14 14 15 15 13 12 12 12 12 11 9 10 10 9 8 7 7 6 7 5 4 5 4 4 4 5 5 8 6 6 7 7 6 6 4 7 5 5 4 4 2 3 3 1 2 3 1 2 1 1 2 2 2 2 2
18 19 16 15 16 12 11 8 10 16 14 10 9 10 10 11 12 14 16 19 17 16 15 15 14 16 15 15 16 15 15 13 14 16 18 19 18 19 16 15 15 15 15 15 15 15 12 15 13 13 11 12 10 9 11 9 8 7 6 5 4 5 3 3 4 4 5 5 5 6 5 3 2 1 3 3 5 6 5 4 3 5 4 4 3 3 2 2 2 4 1 3 1 2 1 2 2
16 22 21 18 16 16 14 14 12 9 9 10 9 7 10 10 14 15 14 14 16 15 16 15 12 13 13 14 14 15 16 15 14 16 17 19 19 16 15 15 16 15 15 14 15 16 14 13 13 13 10 11 11 11 11 9 8 8 7 7 7 5 6 6 6 6 6 5 5 6 7 7 5 3 7 5 6 5 5 4 3 5 4 3 3 1 2 3 1 2 4 2 2 2 3 3 1
16 15 21 23 21 16 14 16 14 11 10 11 13 11 9 10 15 14 14 15 16 13 14 16 14 11 15 13 13 15 17 16 16 17 17 19 18 18 17 17 17 17 15 14 14 14 15 14 14 14 12 11 11 11 12 9 9 8 9 8 7 7 6 6 4 5 4 4 5 5 7 7 8 8 7 6 5 6 5 4 3 4 5 6 4 4 2 2 4 1 5 2 2 4 1 1 3
15 15 18 21 23 23 18 17 13 9 11 12 15 12 10 9 11 13 14 14 13 15 14 15 16 15 15 15 16 13 15 16 15 17 17 17 18 19 19 18 17 18 15 14 14 14 16 14 15 14 11 11 11 11 13 11 10 9 9 9 8 7 8 7 7 5 4 4 4 5 7 8 9 6 5 7 6 7 5 4 4 3 4 5 5 4 3 3 3 4 3 5 3 1 1 1 2
13 16 19 19 21 21 21 16 13 12 11 10 14 16 11 10 8 12 14 16 17 18 17 19 16 17 16 14 16 16 16 15 15 16 18 17 17 19 17 17 18 18 16 15 14 14 14 14 15 14 13 12 12 13 13 12 10 10 10 9 8 7 7 7 6 5 5 5 5 6 5 8 6 5 5 7 6 7 6 5 5 4 4 4 4 4 4 4 5 4 4 4 3 3 1 2 1
18 17 16 17 18 20 20 16 15 13 11 10 10 12 9 9 8 10 13 15 17 18 19 20 19 18 17 15 14 17 15 11 15 16 16 16 15 16 17 17 18 17 15 14 14 13 14 13 15 15 14 12 12 14 13 14 13 10 10 9 10 8 7 6 6 6 6 5 5 4 5 7 7 6 4 7 6 6 7 7 6 6 5 5 5 5 4 6 4 5 5 4 3 4 2 3 2
15 17 17 17 17 15 16 16 14 11 12 12 17 16 13 11 12 14 13 12 14 15 15 15 15 18 17 16 18 15 12 13 13 14 15 15 14 13 14 17 17 17 14 14 15 14 14 15 15 16 15 12 13 14 14 15 13 11 10 11 11 10 9 8 7 7 7 7 6 5 6 6 6 7 6 5 7 6 7 7 8 8 5 6 3 2 5 6 5 5 5 5 5 4 6 4 3
20 14 15 14 14 14 12 12 14 14 13 13 18 17 17 14 10 15 16 15 17 17 17 18 19 18 15 14 17 16 12 8 10 12 13 14 12 12 16 17 17 17 15 15 16 15 15 15 16 17 16 15 13 14 15 14 13 12 11 12 12 10 10 8 9 7 8 8 8 6 6 6 5 6 6 6 6 9 7 6 6 5 6 6 5 2 3 4 6 6 6 5 5 4 4 3 3
17 16 13 14 10 9 12 10 14 14 13 13 18 18 16 16 13 11 15 18 19 18 15 17 20 19 16 17 15 12 12 16 13 10 10 13 16 18 17 17 17 17 17 17 18 18 16 16 18 18 18 16 15 15 16 15 14 13 12 12 11 10 10 9 8 8 7 7 8 7 7 8 7 6 6 8 7 8 7 6 6 4 6 6 5 4 3 5 5 5 6 5 5 6 4 5 4
16 16 14 13 13 13 10 12 9 11 15 17 17 18 17 13 13 19 16 16 17 16 12 14 17 15 15 15 14 16 17 16 14 14 15 15 16 17 17 17 18 17 18 17 17 16 14 14 17 18 18 17 15 15 16 15 15 13 12 11 11 10 10 9 8 8 8 7 7 8 8 8 8 7 7 6 8 8 8 7 4 6 6 4 6 5 4 4 3 6 7 5 5 4 5 5 4
17 16 17 14 12 10 13 11 15 15 11 12 19 17 10 16 7 12 20 17 14 14 14 12 13 15 11 17 17 17 17 15 14 15 17 16 17 18 17 17 17 17 19 19 16 16 14 14 16 18 17 17 16 16 15 16 14 14 13 11 11 10 10 9 8 8 8 8 7 8 7 7 7 7 8 7 5 7 10 7 6 5 6 6 5 5 5 3 4 2 4 4 4 4 3 3 4
16 16 15 17 17 10 14 11 14 11 12 15 14 14 9 12 5 5 8 17 16 15 15 12 11 13 17 19 21 19 18 18 17 16 18 18 17 19 18 16 16 17 18 18 17 16 16 16 17 19 19 19 17 17 16 16 15 13 13 13 13 11 9 9 8 8 7 8 8 8 8 7 8 8 7 8 6 8 9 8 7 7 7 7 7 6 5 4 4 3 3 5 3 4 4 3 2
12 15 18 18 14 15 12 16 17 14 13 14 10 12 12 10 14 17 8 8 12 15 17 17 15 17 17 11 18 19 17 17 16 16 16 16 15 16 17 17 17 18 18 19 18 17 18 17 17 18 18 17 18 17 16 16 15 14 14 14 13 12 12 12 10 11 11 8 8 8 8 8 7 8 8 8 8 7 8 10 9 9 9 8 8 6 6 5 5 4 4 4 4 3 4 4 3
11 15 15 15 17 16 12 13 9 12 13 12 15 15 12 13 10 17 19 16 14 14 15 17 16 15 15 12 21 18 18 17 16 14 15 15 16 18 19 19 20 20 21 20 18 17 16 16 18 19 18 19 18 18 17 16 16 15 14 15 14 13 13 13 11 11 10 9 8 8 8 9 9 8 9 8 9 9 7 9 9 9 9 9 8 8 7 6 6 6 5 5 4 3 4 4 4
22 15 13 16 15 19 13 11 15 15 15 10 12 16 15 15 12 11 20 20 16 13 12 15 15 17 15 11 20 17 19 18 14 13 12 12 14 15 16 20 22 20 19 19 19 18 17 16 17 19 20 21 20 18 16 14 15 13 13 14 15 14 12 12 11 11 11 10 11 10 10 9 10 9 9 8 9 10 8 9 8 9 8 8 8 8 8 6 7 7 6 6 5 4 3 5 5
25 22 18 15 13 11 14 13 9 10 14 14 14 16 12 13 12 13 14 19 17 17 16 17 20 18 14 12 18 19 20 16 16 16 15 16 18 19 20 20 21 21 20 20 22 21 23 20 18 18 19 18 18 17 16 15 16 14 13 13 14 13 12 12 11 11 11 12 11 11 12 12 11 10 9 10 10 11 10 11 9 10 9 9 9 8 9 8 7 7 6 6 6 6 5 5 5
17 18 18 14 12 11 13 13 14 12 11 13 10 14 11 11 11 14 14 9 15 16 13 13 13 14 17 17 18 20 16 16 16 15 16 17 16 17 18 19 20 19 17 19 21 23 22 21 21 21 20 21 21 20 17 15 14 15 15 15 15 14 15 13 13 12 12 12 11 11 12 11 10 11 11 11 11 11 11 10 11 10 10 10 10 9 9 8 7 7 6 6 6 7 6 5 4
15 16 17 18 15 15 17 16 15 16 12 8 11 14 9 11 12 9 10 5 14 14 13 13 17 18 14 13 7 15 12 13 14 14 15 15 11 12 11 13 15 18 20 23 22 21 22 22 21 21 21 21 22 20 16 15 15 15 16 16 16 15 14 13 14 13 13 13 12 12 11 10 12 11 11 12 12 11 11 12 11 11 10 10 10 10 10 9 9 8 8 7 6 8 7 6 6
Wind_Direction
169 179 185 201 222 132 168 318 300 134 288 27 34 35 49 67 77 112 112 116 53 60 81 78 81 77 78 83 82 78 77 136 336 244 95 123 121 126 137 134 135 134 130 130 130 135 134 133 135 136 137 138 136 132 132 132 140 135 134 132 129 126 121 116 113 112 111 110 109 108 108 107 105 106 107 108 106 107 106 105 103 102 99 96 94 90 87 85 84 82 79 79 78 79 80 82 81
174 180 194 193 204 117 271 206 292 280 208 27 341 355 18 112 168 89 103 144 133 80 88 106 100 104 94 91 98 88 61 58 76 86 95 123 133 138 139 139 137 130 131 131 131 132 132 133 138 139 138 138 139 136 134 134 136 133 135 132 128 127 124 117 115 115 114 113 111 111 110 109 107 106 109 107 107 106 105 105 104 102 98 95 91 89 86 84 83 81 80 75 75 74 73 71 75
173 183 181 194 87 264 33 284 306 277 271 94 315 52 178 324 76 104 100 88 97 93 64 48 59 64 77 85 72 78 90 87 90 95 107 127 119 134 134 140 129 128 128 130 131 132 135 143 146 136 135 137 139 140 138 136 140 139 137 133 133 129 124 118 117 118 117 115 113 114 113 110 109 109 109 108 108 107 107 106 105 101 97 92 88 88 87 83 79 77 75 73 71 71 68 65 63
172 177 163 89 341 330 302 215 203 214 239 97 87 71 218 105 113 95 101 92 84 108 97 86 77 75 91 89 96 94 97 92 103 115 122 143 121 137 131 133 129 127 126 129 131 132 134 141 140 139 139 141 143 141 139 140 143 142 138 135 132 129 123 121 122 122 119 117 117 117 115 112 111 112 110 109 109 108 107 106 104 101 96 90 88 87 87 84 81 76 73 70 67 67 66 64 59
192 160 141 138 211 300 247 269 254 211 158 149 110 180 348 104 108 106 103 119 120 106 115 97 91 79 71 81 86 83 97 109 111 115 121 119 126 130 135 134 125 126 130 129 130 129 134 141 144 143 140 140 140 141 141 140 139 135 134 135 130 126 126 126 125 124 122 121 122 119 116 114 113 113 112 112 111 111 110 107 104 101 97 94 92 91 88 85 79 75 71 67 67 64 61 60 62
247 238 160 204 233 219 267 262 273 294 67 107 120 258 168 137 114 119 110 100 84 85 91 100 94 93 78 67 69 103 127 106 112 108 120 130 135 134 131 131 128 131 129 130 127 129 138 146 147 143 141 141 142 143 142 139 138 138 134 133 131 130 132 130 129 127 127 126 123 120 117 116 115 113 114 113 114 115 113 110 105 102 99 97 95 92 86 82 79 73 68 66 65 63 62 60 58
208 167 239 245 255 256 261 251 259 60 60 115 129 169 146 131 111 110 116 106 107 118 110 102 110 109 95 103 94 74 92 114 120 122 124 133 131 131 133 130 128 127 131 130 128 131 139 146 144 143 141 140 139 140 135 137 139 137 134 136 137 135 137 134 132 133 130 129 126 123 121 120 118 115 115 116 116 116 113 107 103 100 99 98 94 90 85 78 73 67 64 58 55 56 57 59 55
192 240 179 225 258 227 245 255 53 58 73 81 110 120 108 118 129 123 134 116 125 99 88 92 90 91 87 82 85 101 99 102 114 121 125 132 132 129 124 125 127 128 130 130 129 131 140 144 143 139 138 137 136 136 136 138 138 136 133 137 140 140 140 138 137 137 136 133 130 130 128 122 118 119 118 121 120 118 116 111 105 98 96 92 91 88 84 79 70 65 61 56 53 50 48 56 58
211 245 256 272 272 260 268 230 86 88 103 80 75 78 109 106 97 98 65 89 110 116 121 123 114 101 108 98 90 102 105 115 115 125 128 132 133 132 128 129 125 127 131 129 127 135 141 143 140 138 136 134 135 136 138 136 136 136 139 144 144 144 142 142 142 142 139 138 136 133 128 124 121 125 124 123 123 122 117 111 104 100 92 90 88 85 79 69 65 61 57 55 54 46 45 46 52
252 195 252 265 275 278 250 80 81 57 79 107 130 125 107 139 119 113 140 118 96 102 104 92 94 102 113 103 111 116 118 124 124 122 130 132 135 132 136 130 128 130 129 132 135 137 140 140 137 135 134 136 139 140 140 139 140 144 145 146 146 147 147 145 144 142 141 139 136 133 129 125 128 127 129 128 129 126 119 112 107 100 94 89 87 82 72 66 61 57 53 44 43 50 44 43 39
250 185 225 269 268 267 77 106 109 112 104 102 101 119 123 110 112 104 98 106 121 99 104 112 108 116 112 104 104 119 130 128 129 126 134 136 136 132 133 132 133 130 131 136 137 136 139 140 137 135 138 141 143 141 142 144 147 149 147 149 149 150 148 145 145 145 144 140 136 133 132 133 130 132 133 135 133 130 124 115 108 103 96 91 85 77 73 67 63 49 41 35 30 36 42 44 40
278 270 256 270 290 281 60 56 84 122 115 122 110 123 147 107 119 128 131 119 121 124 125 136 111 115 108 116 121 133 133 131 125 128 130 133 131 129 126 130 132 131 132 133 135 139 142 142 143 143 143 144 144 145 146 150 153 151 151 152 150 148 149 150 149 148 144 140 137 138 139 139 141 139 142 142 133 135 127 115 110 103 98 91 83 80 68 62 51 39 28 19 20 25 26 41 51
249 280 294 302 288 274 332 144 89 107 101 75 78 65 116 147 113 109 115 124 123 126 114 105 127 125 117 119 130 132 125 126 131 130 135 133 132 133 131 130 132 130 128 133 137 140 142 146 145 146 146 147 147 150 152 155 154 153 152 149 149 150 151 152 151 148 146 145 146 146 147 146 148 149 148 146 148 132 132 130 118 109 104 107 101 90 82 60 38 19 4 357 0 7 327 38 129
233 272 338 291 294 296 295 78 150 109 86 104 116 141 137 114 124 106 131 123 122 102 121 140 124 112 105 121 139 144 137 144 134 135 130 128 133 135 130 136 131 130 133 134 135 141 145 147 146 146 147 150 148 151 153 154 156 156 152 151 153 154 154 152 152 151 150 152 153 154 153 155 154 157 154 155 149 146 128 125 120 121 129 125 119 116 95 31 335 336 327 321 329 323 280 264 228
246 88 297 308 301 322 62 299 94 96 100 113 121 135 95 99 120 145 114 95 96 118 119 113 117 138 142 143 146 145 140 142 141 136 131 133 130 121 123 125 125 131 132 134 138 142 147 147 146 146 153 151 150 154 154 156 158 159 153 154 156 156 155 155 154 154 156 156 159 161 162 162 162 162 163 157 161 156 157 157 156 166 134 161 162 195 229 228 275 286 309 305 305 300 284 269 251
240 258 333 308 306 336 310 88 16 94 106 114 118 96 102 97 103 124 102 127 118 118 154 125 169 110 149 144 141 139 140 143 140 134 136 132 127 119 116 120 128 130 133 136 140 144 145 146 145 151 155 154 158 155 154 157 165 157 153 155 156 156 158 159 159 160 162 166 168 168 171 168 169 173 170 171 173 176 177 233 175 190 214 205 235 257 259 268 261 265 270 292 287 279 273 267 261
180 59 354 324 311 8 276 46 5 130 103 104 150 148 123 132 93 83 97 114 132 152 139 150 105 138 154 136 138 140 142 140 139 138 137 131 132 113 117 126 125 130 133 139 142 142 144 147 150 151 156 157 158 152 156 157 159 157 156 158 160 161 162 164 165 167 168 173 176 175 175 185 180 182 180 189 180 188 178 198 175 210 224 239 261 260 270 264 261 250 258 258 264 268 271 270 266
214 125 97 281 235 249 296 111 156 111 128 133 170 128 122 116 139 120 135 122 118 146 122 118 130 134 125 134 141 142 142 144 144 143 139 141 141 127 130 136 138 139 142 140 144 147 144 149 151 151 153 159 156 156 161 157 158 162 162 162 164 167 169 168 173 175 176 178 186 176 184 203 190 192 180 195 185 196 183 199 206 205 226 244 250 262 258 258 256 257 256 254 258 265 270 270 252
227 118 162 262 289 342 275 23 112 161 127 157 119 134 141 114 134 167 142 123 145 127 125 137 118 116 121 136 141 144 147 146 147 145 148 147 146 140 138 141 142 141 147 147 151 150 150 149 154 156 156 159 160 165 163 159 161 169 165 168 169 172 177 178 177 186 184 181 192 178 199 178 200 212 201 194 207 193 195 194 208 215 226 238 253 262 276 273 267 262 257 263 267 267 266 237 243
201 122 134 239 254 266 300 225 120 148 121 135 174 152 131 136 146 193 142 129 158 138 143 135 122 129 134 139 147 146 149 149 150 149 152 152 147 146 143 147 151 151 151 153 151 153 155 156 159 159 154 164 161 178 170 159 168 173 169 174 171 177 178 187 186 190 190 189 188 192 196 180 196 193 213 203 191 185 177 190 207 218 241 248 263 273 269 263 268 273 274 272 272 252 232 254 237
153 193 187 225 287 27 267 241 123 98 145 119 134 158 121 174 121 211 118 150 164 134 150 140 138 138 140 146 149 153 152 155 152 156 156 154 153 151 150 154 156 152 153 151 152 158 163 158 160 163 160 167 170 172 182 164 167 179 174 175 176 177 182 187 193 189 191 190 195 194 203 184 197 198 186 180 199 208 191 179 184 201 213 203 223 246 254 291 261 238 257 251 234 258 267 264 278
296 267 142 210 243 250 343 322 84 95 92 142 126 207 132 124 140 203 155 174 163 148 149 138 142 143 145 149 154 158 155 158 159 160 160 160 160 156 152 152 155 154 153 158 160 160 165 164 163 160 165 167 177 176 175 166 167 179 176 179 172 174 189 187 185 185 194 189 200 201 198 195 205 198 175 190 197 160 152 154 159 192 124 275 195 277 231 230 275 337 305 284 282 243 226 225 155
227 193 183 206 186 42 271 214 164 148 183 148 158 97 110 199 127 220 107 268 127 134 142 133 144 145 152 152 157 160 160 162 163 166 162 162 166 159 158 157 156 159 160 158 158 162 162 165 165 164 166 172 181 178 173 170 167 180 179 184 177 174 193 186 177 182 181 189 203 205 204 188 197 178 183 202 157 150 81 133 108 93 102 231 245 269 265 191 131 194 196 253 263 313 287 286 183
221 268 180 214 187 198 215 222 167 187 188 191 112 146 186 160 156 135 146 339 116 128 135 135 140 149 151 154 166 160 162 169 164 166 168 164 169 163 163 159 165 156 165 159 160 161 169 168 166 168 167 173 184 177 171 181 164 173 182 192 180 188 182 176 174 188 179 189 202 216 205 181 230 135 62 40 1 63 137 150 150 183 141 293 250 266 288 23 309 12 322 332 311 278 299 316 318
244 211 176 265 204 228 216 219 205 207 200 120 163 176 136 187 142 194 141 129 113 129 132 139 145 149 156 159 164 165 164 171 166 164 170 166 175 160 170 156 165 161 166 159 164 165 171 170 171 173 171 178 174 177 177 181 167 178 180 184 181 196 177 179 182 194 171 193 187 229 204 194 163 87 100 105 113 79 92 114 153 183 157 179 216 247 243 5 316 331 1 339 329 324 329 314 327
240 279 280 218 207 198 210 220 241 208 198 167 152 201 138 203 121 201 137 128 138 125 133 143 145 155 158 163 166 164 167 175 167 168 173 164 179 163 170 161 168 162 174 164 163 169 171 171 174 176 173 179 175 180 182 177 178 188 177 188 178 182 190 180 184 184 183 181 169 204 205 263 157 115 124 144 127 127 139 132 127 155 157 153 234 254 15 309 353 71 341 334 331 347 324 291 328
267 236 215 226 253 212 222 242 213 232 183 157 199 168 171 138 189 148 146 135 157 140 138 144 150 156 162 164 165 164 170 174 171 172 173 170 178 170 173 163 177 165 172 168 165 166 173 171 175 175 172 174 175 189 185 181 180 182 182 184 181 177 195 178 184 191 174 163 179 167 189 184 288 114 133 162 139 117 176 145 122 125 198 57 359 330 32 333 337 360 24 358 338 357 310 309 277
251 278 321 270 200 250 292 235 223 275 193 157 183 182 174 148 225 149 154 146 165 139 149 148 153 163 162 165 166 161 175 175 170 177 176 175 174 176 179 166 170 170 171 169 171 167 170 175 176 172 173 176 176 189 182 181 186 180 177 191 181 185 181 201 184 196 156 109 148 161 162 167 202 110 129 147 163 181 155 136 179 168 120 103 320 301 350 274 262 328 19 348 264 253 261 260 247
283 287 271 264 295 258 215 246 267 201 249 167 173 171 193 160 216 164 152 145 171 147 152 154 157 164 161 169 162 166 177 180 173 183 179 178 172 180 177 162 176 168 173 172 172 175 173 180 175 176 174 168 185 189 178 180 187 182 180 191 186 178 186 188 204 184 181 140 158 133 99 160 182 139 170 174 188 192 163 190 184 189 126 175 214 239 245 269 351 332 54 283 262 247 244 245 249
249 252 245 257 251 232 217 215 240 225 223 167 155 204 200 180 175 182 144 154 171 154 155 166 157 166 163 170 165 168 178 179 181 183 176 175 173 185 179 171 178 167 172 174 178 178 174 184 171 176 176 172 185 196 172 183 184 185 178 188 187 173 190 191 199 205 172 147 144 138 172 167 185 155 157 190 220 212 178 189 129 176 170 184 200 189 229 344 31 310 305 278 262 243 246 1 351
267 235 239 263 255 250 218 208 203 246 178 171 155 198 208 184 170 170 148 158 176 165 159 170 163 164 166 173 167 174 177 185 184 181 183 176 179 184 180 177 175 172 168 174 177 184 178 177 172 175 175 173 181 200 177 181 178 185 183 183 186 175 193 192 201 192 189 181 157 154 163 148 208 141 156 188 190 231 196 129 165 145 156 165 247 172 65 45 286 251 229 252 249 288 9 323 261
241 256 225 218 241 238 231 180 225 239 135 191 172 157 224 224 171 173 157 161 180 172 165 170 169 169 167 177 167 175 180 184 188 184 186 179 178 185 180 182 176 181 170 171 176 177 182 170 174 172 173 169 180 192 177 183 174 187 187 188 179 185 199 191 200 208 190 187 167 155 157 165 166 163 165 193 205 204 207 158 146 138 130 72 331 28 19 173 235 246 243 247 26 11 318 273 40
224 239 247 231 211 234 220 175 197 206 135 215 192 184 173 229 183 182 158 166 185 171 176 173 172 177 168 181 172 175 180 182 191 188 187 180 181 185 181 188 180 182 170 165 177 173 181 168 175 175 176 173 174 185 177 180 177 181 197 189 194 180 202 196 198 220 199 186 192 159 164 145 150 158 187 220 207 216 218 151 133 138 88 60 42 54 269 243 235 222 219 47 342 38 315 329 10
230 207 243 247 233 200 221 159 200 186 175 200 203 223 182 202 206 182 164 174 184 172 180 179 176 180 172 178 181 174 181 181 192 191 189 186 180 185 183 187 181 181 172 172 177 172 181 172 172 185 166 176 171 178 178 177 182 179 193 197 201 198 201 208 205 208 216 205 168 131 150 147 159 180 178 224 195 216 213 100 142 136 141 145 137 352 244 229 219 303 38 46 44 338 332 330 16
227 218 218 234 254 238 185 173 163 212 168 219 186 229 202 166 166 180 170 178 183 179 181 181 184 179 174 180 188 178 182 184 190 195 191 187 184 183 183 182 184 181 181 175 174 169 177 177 167 194 160 173 168 171 174 181 174 179 185 199 203 208 205 200 212 210 197 212 198 140 152 154 160 179 184 205 188 204 203 120 125 118 105 116 133 238 219 234 119 90 62 41 81 13 279 270 244
235 226 217 228 239 217 236 188 186 198 188 209 205 201 209 218 169 174 174 183 188 185 181 182 187 180 177 182 189 187 182 189 187 193 195 188 186 181 186 179 186 180 180 167 166 166 174 178 165 185 172 168 158 167 171 182 184 179 190 189 204 199 207 200 205 225 211 186 194 133 147 152 158 173 180 205 194 203 144 135 126 134 154 158 195 229 231 61 40 42 43 49 10 311 281 98 318
243 246 236 221 227 227 217 245 207 179 217 202 210 207 205 206 183 168 183 184 196 194 189 187 184 182 183 187 188 194 184 191 186 189 198 188 189 180 186 175 185 177 177 163 164 169 174 182 171 177 182 169 163 173 176 185 185 182 190 195 201 195 199 205 204 215 223 183 177 135 152 167 172 172 182 198 197 194 119 123 147 167 178 192 183 253 52 57 85 160 145 179 243 266 3 336 42
241 250 248 246 224 241 215 249 199 176 203 197 203 224 210 204 193 161 207 241 196 201 201 191 187 186 184 185 190 193 190 188 185 186 196 193 191 185 185 177 185 180 178 169 173 172 174 182 180 173 182 180 171 175 178 184 189 188 182 195 200 195 185 199 209 205 219 185 147 134 172 167 181 173 190 189 207 101 123 172 161 176 190 169 117 64 102 152 116 273 113 65 223 275 57 339 23
231 244 250 247 239 229 223 221 218 177 193 204 192 214 214 211 185 166 199 213 208 203 207 196 187 188 186 183 190 189 196 191 190 184 191 196 191 190 184 182 185 187 181 178 173 171 175 184 182 173 181 184 177 174 177 185 188 188 186 189 203 195 189 193 202 209 189 208 158 154 173 179 165 190 194 176 159 111 192 155 165 160 172 114 128 167 213 89 115 298 91 174 12 259 122 112 124
233 232 243 250 249 226 217 244 223 174 181 205 189 209 215 215 195 184 203 206 213 210 207 202 190 193 188 190 189 189 194 192 193 186 190 196 191 192 184 185 183 186 180 181 176 178 177 184 184 177 176 183 184 175 176 183 187 187 190 192 187 207 181 182 192 186 200 203 187 164 165 182 174 192 191 175 139 162 160 163 171 128 175 92 109 13 119 117 119 93 328 42 79 328 299 170 213
229 238 234 237 244 231 245 222 217 160 177 223 194 210 218 217 213 209 200 208 206 203 208 210 197 190 195 195 190 186 193 190 195 197 189 195 194 193 185 185 184 188 185 184 181 183 183 184 183 179 173 179 184 177 176 175 181 187 188 199 196 186 181 198 175 200 210 192 192 154 138 136 99 328 42 246 152 152 163 165 174 133 133 144 146 180 147 172 183 142 163 101 157 339 328 319 166
226 228 240 241 243 255 218 230 232 168 186 186 207 214 222 210 228 219 204 210 203 199 201 206 201 194 184 200 189 181 194 195 192 198 193 191 197 191 186 182 188 191 189 186 185 184 181 180 181 179 176 176 181 183 176 176 180 183 179 184 187 185 184 189 200 197 194 177 200 184 150 151 166 185 177 201 147 159 159 174 173 138 127 114 140 108 47 59 51 234 133 174 159 144 15 355 85
225 220 221 243 249 241 247 246 221 206 201 188 199 231 233 211 222 224 217 208 216 191 201 208 202 200 188 192 198 193 193 197 192 199 200 193 193 193 187 183 191 194 190 184 185 184 182 179 181 179 178 176 178 179 178 179 179 183 186 186 188 184 186 193 202 207 196 164 171 172 146 164 179 183 187 172 176 150 164 167 169 137 150 147 176 128 201 189 173 220 120 108 65 73 130 332 358
232 226 217 222 241 249 235 243 238 230 212 217 209 212 246 232 214 218 217 222 213 210 203 217 205 201 206 196 196 196 194 195 193 194 199 196 191 196 194 187 189 195 189 187 185 183 180 179 181 179 180 178 177 175 178 180 182 181 184 187 188 188 189 189 191 202 176 167 172 187 171 169 177 188 174 155 184 143 164 168 136 175 169 170 136 123 197 217 111 122 92 82 76 85 65 11 41
229 226 235 221 221 242 254 245 239 229 215 208 197 194 224 234 220 219 218 222 214 209 201 211 211 200 204 209 196 192 207 196 195 190 198 198 190 194 192 188 190 194 191 188 187 184 179 179 178 179 181 180 178 176 177 180 184 183 183 187 185 189 188 188 182 187 181 180 189 181 166 146 153 165 183 155 169 160 155 152 153 179 183 132 137 157 202 161 117 100 103 109 139 146 320 47 36
225 237 233 243 229 218 237 251 246 240 241 244 209 198 234 236 237 238 213 221 219 218 215 213 201 205 193 202 208 204 198 194 195 195 189 196 196 195 197 191 190 194 192 187 187 182 179 177 178 179 183 182 179 177 176 179 184 182 185 184 189 183 188 187 188 175 183 174 197 171 153 139 153 158 181 150 161 158 147 161 168 188 193 150 148 180 197 110 133 139 148 161 172 156 188 176 224
232 225 243 238 244 237 211 224 242 250 250 247 241 209 209 240 223 224 227 214 223 221 211 216 208 198 192 200 206 208 193 188 189 191 183 187 189 191 200 200 192 190 193 184 185 185 182 180 178 180 183 182 180 179 177 178 182 186 185 186 189 187 184 186 184 177 173 174 180 176 152 147 151 161 168 157 155 158 162 166 181 197 168 120 150 197 145 142 155 160 157 182 167 184 165 193 196
223 225 221 239 243 248 251 227 215 239 244 252 244 236 209 229 217 219 212 224 222 224 218 204 206 198 197 199 202 196 190 193 191 185 181 175 176 195 196 199 192 189 191 186 187 185 185 182 179 180 183 182 182 180 178 179 182 185 188 185 189 188 183 187 183 187 176 175 171 177 155 151 167 157 172 158 165 175 157 182 200 191 129 128 152 235 155 183 165 170 173 161 180 180 174 160 174
218 225 224 220 224 230 235 235 228 218 236 235 243 238 238 226 230 239 200 208 221 220 215 206 204 200 197 196 187 179 183 199 198 177 177 172 181 194 195 193 187 186 191 190 190 190 186 181 180 181 183 182 182 180 180 180 182 185 185 187 187 188 187 184 185 184 182 175 168 174 163 165 170 167 182 164 173 179 153 187 213 136 127 138 153 192 223 191 142 173 149 170 192 177 186 165 175
216 217 217 218 216 216 230 230 244 237 219 233 245 237 247 252 226 211 213 206 216 214 213 207 201 196 196 174 178 190 191 193 194 188 192 184 188 193 200 197 188 187 187 190 188 190 187 183 181 183 183 183 181 181 180 180 183 184 185 185 185 185 187 187 183 184 181 183 169 173 173 172 168 179 175 189 172 172 156 187 186 127 136 143 159 185 217 158 149 164 159 177 194 180 182 182 176
217 220 218 222 223 219 217 223 226 228 244 236 229 245 235 233 216 214 204 201 201 207 214 212 187 189 199 178 189 192 190 191 191 191 192 192 188 187 194 192 187 186 187 191 189 188 184 185 181 183 183 184 183 182 181 182 182 184 184 185 186 183 187 186 185 181 183 181 176 171 175 175 173 174 176 185 186 161 160 177 153 150 145 164 176 183 193 169 158 178 151 178 195 166 208 182 161
210 216 221 224 224 218 240 219 232 233 225 235 237 230 218 256 309 233 219 201 195 202 208 194 195 206 208 190 182 187 188 190 194 194 191 192 185 186 194 191 186 186 186 191 191 187 186 185 181 183 185 184 184 184 184 183 182 183 184 186 187 184 184 185 185 182 185 180 177 176 176 177 172 166 177 169 185 166 157 165 160 165 159 169 184 189 188 170 169 178 172 183 208 154 192 185 200
204 208 216 223 221 229 232 259 257 229 230 243 228 234 220 209 237 256 230 220 213 199 206 193 193 203 218 195 173 180 183 188 192 194 193 192 189 192 191 188 186 185 185 192 192 190 187 183 181 182 185 186 187 187 186 183 182 183 186 187 185 187 185 186 186 185 190 183 179 176 178 183 175 167 174 172 178 178 163 165 168 171 171 177 180 186 186 172 171 179 184 192 201 191 171 177 178
238 213 213 220 230 231 232 239 234 247 244 230 232 238 234 231 226 194 225 217 213 215 212 191 183 203 214 174 173 179 181 185 187 188 190 189 190 193 193 192 192 189 189 189 191 190 189 184 183 181 182 186 188 188 188 183 182 184 186 186 188 189 189 189 188 186 188 186 183 178 181 182 186 175 175 177 175 176 171 168 169 175 177 176 181 182 187 185 171 186 186 190 197 201 172 172 180
237 240 186 217 196 212 216 244 228 224 229 252 228 229 243 240 232 204 201 216 191 199 209 220 190 189 212 182 173 171 184 184 177 178 176 181 193 200 191 195 196 191 189 188 187 188 188 187 186 185 185 188 188 189 188 186 183 186 186 187 186 188 190 191 188 184 185 190 190 184 188 183 182 183 175 179 173 174 175 176 174 176 173 177 180 182 184 190 180 183 188 183 190 195 191 179 178
228 243 247 207 236 215 222 220 245 232 239 232 235 236 234 226 249 234 207 209 188 189 193 211 222 199 196 199 176 181 183 176 171 175 176 183 193 201 198 196 197 194 188 189 190 190 192 190 184 186 187 187 188 189 185 185 185 186 186 185 187 187 189 188 188 184 186 191 192 189 189 185 184 181 180 180 177 176 177 180 179 180 179 178 183 184 182 188 189 185 179 185 188 196 198 188 177
208 225 234 238 210 221 237 225 219 219 231 243 247 228 228 237 239 240 247 203 178 189 202 184 220 236 202 206 189 182 175 168 172 174 177 181 190 197 199 196 200 197 190 191 193 194 193 191 188 187 187 188 190 190 186 186 184 186 184 184 186 187 189 188 188 189 189 190 193 192 190 191 176 185 179 184 180 178 180 182 185 185 184 182 182 188 183 183 191 181 184 190 190 188 194 199 194
211 217 228 231 227 195 213 228 211 212 218 233 235 244 246 217 225 236 253 182 172 190 218 187 194 219 246 248 216 158 155 163 177 171 180 182 171 180 192 197 198 200 195 195 194 192 193 192 189 189 189 190 191 189 186 183 184 184 186 185 187 187 188 188 190 191 194 192 191 195 189 188 183 184 182 184 181 180 179 182 185 185 186 180 182 187 183 182 185 185 188 193 195 183 192 199 204